Weather in Romanovka

Russia / Voronezh Oblast     51°21′36″N   40°07′29″E
temp.,
°C
wind,
m/s
gust,
m/s
humid.,
%
clouds,
%
prec.,
mm/h
press.,
hPa
HPBL,
m
25 february, thu
thu2500:00−13ssw489598 0.6 1036373
03:00−12ssw5109599 1.1 1034375
06:00−11ssw51193100 0.3 1031415
09:00−8sw61193100 0.4 1029424
12:00−5sw61094100 0.3 1026442
15:00−2sw71294100 0.4 1023380
18:000wsw71595100 0.9 1020466
21:00+2w51199100 1.5 1020322
26 february, fri
fri2600:00+1w51199100 0.3 1019293
03:00+1w51198100 0.6 1020321
06:00+1wnw41198100 0.1 1018297
09:00+1w4999100 0.2 1018261
12:00+2w511100100 0.0 1017274
15:00+3wsw71499100 0.0 1015388
18:00+2w71498100 0.1 1013407
21:00+2wsw61398100 0.4 1012369
27 february, sat
sat2700:00+2w51197100 0.0 1011358
03:00+1w51095100 0.1 1011359
06:00+1w61194100 0.0 1009401
09:00+1w61297100 0.1 1009545
12:00+1w61196100 0.0 1008596
15:00+1w61198100 0.1 1008600
18:00+1wnw6129796 0.1 1007502
21:00+1nw5109798 0.2 1009485
28 february, sun
sun2800:000wnw5998100 0.1 1009464
03:000nw489697 0.2 1010434
06:00−2n499275 0.0 1012600
09:00−3nne468187 0.1 1014720
12:00−3n4679100 0.0 1016741
15:00−2nnw5681100 0.1 1017748
18:00−4n5784100 0.1 1018674
21:00−3n5882100 0.1 1021762
1 march, mon
mon100:00−4n488992 0.1 1022725
03:00−5n498795 0.1 1024662
06:00−6nnw49900 0.0 1025489
09:00−6n598217 0.0 1027643
12:00−4n477659 0.0 1029750
15:00−3nnw357580 0.0 1029831
18:00−3nw3577100 0.0 1030769
21:00−4nw358591 0.1 1031241